Starlink 35151

operational
NORAD ID: 65624 Int'l Des: 2025-210 Owner: SPXS Country: US Constellation: starlink
NOTLE

关于 Starlink 35151

正在加载描述...

实时位置

正在加载3D地球...

即将过境

高度历史

Altitude vs Time

uPlot chart will show altitude changes over time

两行轨道根数

1 65624U 25210C 25340.84647921 .00035522 00000-0 12051-2 0 9996
2 65624 53.1604 18.5221 0002685 89.1520 270.9788 15.30216322 13436
Epoch: Dec 6, 2025 • Age: 16 hours

当前状态

高度 476.8 km
速度 7.63 km/s
星下点 -4.54°S, 69.79°W
发射日期 Sep 18, 2025
运行时间 0.2 years
类型 internet

技术详情

分类 Payload
质量 575.00 kg
干质量 530.00 kg
总质量 575.00 kg
长度 0.30 m
直径 4.10 m
跨度 29.00 m
形状 Box + pan
制造商 SPXS
平台类型 Starlink V2MO
阶段状态 In Orbit
所有者/国家 SPXS/US

大型星座

Loading constellations...